TimeCDT,TemperatureF,Dew PointF,Humidity,Sea Level PressureIn,VisibilityMPH,Wind Direction,Wind SpeedMPH,Gust SpeedMPH,PrecipitationIn,Events,Conditions,WindDirDegrees,DateUTC
12:15 AM,54.1,34.7,48,29.78,-9999.0,East,4.6,-,N/A,,Overcast,100,2013-03-22 05:15:00
12:35 AM,54.3,35.2,49,29.77,-9999.0,East,5.8,-,N/A,,Overcast,90,2013-03-22 05:35:00
12:55 AM,52.9,35.4,52,29.77,-9999.0,East,8.1,-,N/A,,Overcast,80,2013-03-22 05:55:00
1:15 AM,52.7,36.0,53,29.76,-9999.0,East,8.1,-,N/A,,Overcast,100,2013-03-22 06:15:00
1:35 AM,52.7,36.3,54,29.76,-9999.0,ENE,3.5,-,N/A,,Overcast,70,2013-03-22 06:35:00
1:55 AM,52.7,36.9,55,29.76,-9999.0,East,6.9,-,N/A,,Overcast,80,2013-03-22 06:55:00
2:15 AM,52.2,37.8,58,29.76,-9999.0,ENE,5.8,-,N/A,,Overcast,70,2013-03-22 07:15:00
2:35 AM,51.8,39.0,62,29.76,-9999.0,East,5.8,-,N/A,,Overcast,90,2013-03-22 07:35:00
2:55 AM,51.3,39.6,64,29.75,-9999.0,East,8.1,-,N/A,,Overcast,100,2013-03-22 07:55:00
3:15 AM,51.8,40.1,64,29.75,-9999.0,East,6.9,-,N/A,,Overcast,90,2013-03-22 08:15:00
3:35 AM,52.0,41.0,66,29.74,-9999.0,East,6.9,-,N/A,,Overcast,100,2013-03-22 08:35:00
3:55 AM,52.2,41.9,68,29.73,7.0,East,6.9,-,N/A,,Overcast,90,2013-03-22 08:55:00
4:15 AM,52.2,42.4,69,29.74,10.0,East,6.9,-,N/A,,Overcast,90,2013-03-22 09:15:00
4:35 AM,51.6,43.3,73,29.74,10.0,ENE,4.6,-,N/A,,Overcast,60,2013-03-22 09:35:00
4:55 AM,50.0,43.7,79,29.74,10.0,NE,4.6,-,N/A,,Overcast,50,2013-03-22 09:55:00
5:15 AM,49.1,43.7,82,29.74,10.0,East,6.9,-,N/A,Rain,Light Rain,80,2013-03-22 10:15:00
5:35 AM,48.7,44.6,86,29.74,10.0,East,5.8,-,N/A,,Overcast,80,2013-03-22 10:35:00
5:55 AM,49.1,45.0,86,29.76,-9999.0,NE,5.8,-,N/A,,Overcast,40,2013-03-22 10:55:00
6:15 AM,49.1,45.0,86,29.78,-9999.0,ENE,8.1,-,N/A,,Overcast,70,2013-03-22 11:15:00
6:35 AM,49.1,45.7,88,29.78,-9999.0,East,5.8,-,N/A,,Overcast,100,2013-03-22 11:35:00
6:55 AM,49.3,46.0,89,29.78,-9999.0,East,8.1,-,N/A,,Overcast,80,2013-03-22 11:55:00
7:15 AM,49.1,46.0,89,29.79,10.0,East,8.1,-,N/A,Rain,Light Rain,80,2013-03-22 12:15:00
7:35 AM,49.1,46.4,90,29.79,7.0,ENE,8.1,-,N/A,Rain,Light Rain,70,2013-03-22 12:35:00
7:55 AM,49.1,46.4,90,29.80,7.0,East,8.1,-,N/A,,Overcast,90,2013-03-22 12:55:00
8:15 AM,48.6,45.9,90,29.81,7.0,East,9.2,-,N/A,,Overcast,80,2013-03-22 13:15:00
8:35 AM,48.6,45.9,90,29.82,7.0,East,10.4,-,N/A,,Overcast,90,2013-03-22 13:35:00
8:55 AM,48.4,45.9,91,29.82,5.0,East,9.2,-,N/A,,Overcast,100,2013-03-22 13:55:00
9:15 AM,48.6,46.2,92,29.81,5.0,ESE,8.1,-,N/A,Rain,Light Rain,110,2013-03-22 14:15:00
9:35 AM,49.1,46.6,91,29.82,7.0,East,5.8,-,N/A,,Overcast,100,2013-03-22 14:35:00
9:55 AM,49.5,46.9,91,29.82,5.0,ESE,6.9,-,0.01,Rain,Light Rain,120,2013-03-22 14:55:00
10:15 AM,50.2,47.8,92,29.82,5.0,ESE,8.1,-,N/A,,Overcast,120,2013-03-22 15:15:00
10:35 AM,51.3,48.7,91,29.83,5.0,ESE,5.8,-,N/A,,Overcast,120,2013-03-22 15:35:00
10:55 AM,52.2,49.6,91,29.82,4.0,ESE,4.6,-,N/A,Rain,Light Rain,110,2013-03-22 15:55:00
11:15 AM,52.7,50.0,91,29.82,5.0,ESE,6.9,-,N/A,,Overcast,110,2013-03-22 16:15:00
11:35 AM,53.2,50.5,91,29.82,5.0,East,5.8,-,N/A,,Overcast,90,2013-03-22 16:35:00
11:55 AM,54.1,51.3,90,29.81,5.0,East,5.8,-,N/A,,Overcast,100,2013-03-22 16:55:00
12:15 PM,54.5,51.4,89,29.82,5.0,East,6.9,-,N/A,,Overcast,80,2013-03-22 17:15:00
12:35 PM,54.5,51.4,89,29.81,5.0,East,5.8,-,N/A,,Overcast,80,2013-03-22 17:35:00
12:55 PM,54.0,51.1,90,29.81,3.0,East,8.1,-,N/A,,Overcast,80,2013-03-22 17:55:00
1:15 PM,54.1,51.3,90,29.80,3.0,East,5.8,-,N/A,,Overcast,80,2013-03-22 18:15:00
1:35 PM,53.8,51.1,91,29.79,2.5,ENE,4.6,-,N/A,,Overcast,70,2013-03-22 18:35:00
1:55 PM,53.8,51.1,91,29.78,2.0,ENE,4.6,-,N/A,,Overcast,70,2013-03-22 18:55:00
2:15 PM,53.6,50.7,90,29.78,2.5,ENE,6.9,-,N/A,,Overcast,70,2013-03-22 19:15:00
2:35 PM,53.6,50.5,89,29.77,2.5,East,6.9,-,N/A,,Overcast,80,2013-03-22 19:35:00
2:55 PM,53.6,50.5,89,29.76,2.5,East,6.9,-,N/A,,Overcast,80,2013-03-22 19:55:00
3:15 PM,54.5,50.9,88,29.76,4.0,East,5.8,-,N/A,,Overcast,100,2013-03-22 20:15:00
3:35 PM,55.6,51.1,85,29.75,5.0,ENE,5.8,-,N/A,,Haze,70,2013-03-22 20:35:00
3:55 PM,56.1,51.3,84,29.74,5.0,ENE,8.1,-,N/A,,Haze,70,2013-03-22 20:55:00
4:15 PM,55.8,50.9,84,29.75,5.0,NE,8.1,-,N/A,,Haze,50,2013-03-22 21:15:00
4:35 PM,55.4,50.7,84,29.75,5.0,ENE,6.9,-,N/A,,Haze,70,2013-03-22 21:35:00
4:55 PM,54.9,50.4,85,29.76,5.0,NE,8.1,-,N/A,,Haze,50,2013-03-22 21:55:00
5:15 PM,54.1,50.0,86,29.76,5.0,ENE,6.9,-,N/A,,Overcast,60,2013-03-22 22:15:00
5:35 PM,53.4,49.5,86,29.76,5.0,ENE,6.9,-,N/A,,Overcast,60,2013-03-22 22:35:00
5:55 PM,53.4,49.5,86,29.76,4.0,ENE,4.6,-,N/A,,Overcast,60,2013-03-22 22:55:00
6:15 PM,52.7,49.3,88,29.77,4.0,NNE,4.6,-,N/A,,Overcast,30,2013-03-22 23:15:00
6:35 PM,52.2,49.1,89,29.78,4.0,ENE,5.8,-,N/A,,Overcast,70,2013-03-22 23:35:00
6:55 PM,51.8,48.6,89,29.78,4.0,NE,6.9,-,N/A,,Overcast,40,2013-03-22 23:55:00
7:15 PM,51.1,48.2,90,29.79,4.0,NE,4.6,-,N/A,,Overcast,50,2013-03-23 00:15:00
7:35 PM,50.5,47.8,90,29.78,4.0,ENE,6.9,-,N/A,,Overcast,60,2013-03-23 00:35:00
7:55 PM,50.4,47.8,91,29.80,5.0,ENE,6.9,-,N/A,,Overcast,70,2013-03-23 00:55:00
8:15 PM,50.2,47.7,91,29.80,5.0,NE,8.1,-,N/A,,Overcast,50,2013-03-23 01:15:00
8:35 PM,50.2,47.7,91,29.81,5.0,ENE,6.9,-,N/A,,Overcast,60,2013-03-23 01:35:00
8:55 PM,50.0,47.3,90,29.81,5.0,NE,6.9,-,N/A,,Overcast,40,2013-03-23 01:55:00
9:15 PM,50.0,47.3,90,29.82,5.0,NE,5.8,-,N/A,,Overcast,50,2013-03-23 02:15:00
9:35 PM,49.8,47.3,91,29.82,5.0,NE,6.9,-,N/A,,Overcast,40,2013-03-23 02:35:00
9:55 PM,49.5,47.1,92,29.83,5.0,NE,5.8,-,N/A,,Overcast,50,2013-03-23 02:55:00
10:15 PM,49.5,47.3,92,29.83,5.0,ENE,4.6,-,N/A,,Overcast,70,2013-03-23 03:15:00
10:35 PM,49.5,46.9,91,29.83,5.0,ENE,5.8,-,N/A,,Overcast,70,2013-03-23 03:35:00
10:55 PM,49.5,46.9,91,29.84,5.0,NE,6.9,-,N/A,,Overcast,50,2013-03-23 03:55:00
11:15 PM,49.3,46.8,91,29.84,4.0,NE,5.8,-,N/A,,Overcast,50,2013-03-23 04:15:00
11:35 PM,49.1,46.8,92,29.83,3.0,ENE,5.8,-,N/A,,Overcast,70,2013-03-23 04:35:00
11:55 PM,49.1,46.9,92,29.83,3.0,NE,5.8,-,N/A,,Overcast,50,2013-03-23 04:55:00